STARLINK-2618 (48693 NORAD) Tracking and Keplerian Element Data

This shows tracking and keplerian element data for the satellite.

Feedback or suggestion? Click here.




ElementValue
Catalog48693
NameSTARLINK-2618
Epoch Orbit173
Epoch Day170.58334491
Epoch Year2021
RAAN306.2377
Inclination53.048
Eccentricity0.0001801
Argument of Perigee46.5415
Mean Anonmoly89.2386
Mean Motion15.73217476
Decay Rate-6.386E-05
L11 48693U 21044BH 21170.58334491 -.00006386 00000-0 -41068-4 0 9997
L22 48693 53.0480 306.2377 0001801 46.5415 89.2386 15.73217476 1735

Live tracking and technical data element details for STARLINK-2618 (NORAD 48693). STARLINK-2618 can be tracked NOW for your location showing map with azimuth and elevation plus other details from your city location.

Track the satellite on the map from your city or location and see movement details for azimuth, elevation, latitude, longitude, range, height, and movement on the map or in text.







IsCatalogInMostPopularTable: catalog: 48693, numindb: 2
Update: records affected: 1



GetName: 48693 STARLINK-2618

Hit Count: updated at: Mon, 21 Jun 2021 04:29:34 GMT